NOZ815 ENBO-ENTC

Flight info

Callsign NOZ815
Flight time N/A
Altitude 29000
Route PENNO DCT ATWEG
Aircraft B738/M-SDE2E3FGHIRWXY/LB1

Departure

Time 2026-05-06 06:01
Airport Bodø Airport (ENBO)

Arrival

Time N/A
Airport Tromsø Airport (ENTC)
Time Latitude Longitude Altitude Speed Heading
2026-05-06 05:44 67.27187 14.36949 41 ft 0 kts 296°
2026-05-06 05:56 67.27184 14.36964 40 ft 2 kts 296°
2026-05-06 05:56 67.27177 14.37002 38 ft 2 kts 294°
2026-05-06 05:56 67.27172 14.37042 37 ft 2 kts 256°
2026-05-06 05:56 67.27178 14.37068 39 ft 1 kts 206°
2026-05-06 05:57 67.27181 14.37073 40 ft 0 kts 202°
2026-05-06 05:59 67.27178 14.37070 39 ft 2 kts 200°
2026-05-06 05:59 67.27143 14.37075 41 ft 8 kts 160°
2026-05-06 05:59 67.27110 14.37250 42 ft 15 kts 88°
2026-05-06 05:59 67.27131 14.37531 40 ft 16 kts 77°
2026-05-06 06:00 67.27155 14.37809 44 ft 16 kts 78°
2026-05-06 06:00 67.27161 14.38081 44 ft 15 kts 89°
2026-05-06 06:00 67.27148 14.38335 44 ft 14 kts 127°
2026-05-06 06:00 67.27064 14.38333 44 ft 14 kts 232°
2026-05-06 06:01 67.27048 14.38081 45 ft 25 kts 263°
2026-05-06 06:01 67.26944 14.36834 41 ft 115 kts 258°
2026-05-06 06:01 67.26695 14.34221 220 ft 173 kts 255°
2026-05-06 06:01 67.26455 14.31220 1418 ft 162 kts 259°
2026-05-06 06:02 67.26530 14.28370 2398 ft 173 kts 297°
2026-05-06 06:02 67.27503 14.26368 3030 ft 193 kts 338°
2026-05-06 06:02 67.28792 14.25103 3599 ft 208 kts 337°
2026-05-06 06:02 67.30172 14.23622 4174 ft 221 kts 335°
2026-05-06 06:03 67.31629 14.21939 4741 ft 239 kts 334°
2026-05-06 06:03 67.33177 14.20040 5324 ft 251 kts 333°
2026-05-06 06:03 67.34748 14.18044 6061 ft 253 kts 333°
2026-05-06 06:03 67.36339 14.15990 6938 ft 257 kts 333°
2026-05-06 06:04 67.37988 14.14111 7838 ft 262 kts 346°
2026-05-06 06:04 67.39805 14.14149 8790 ft 266 kts 15°
2026-05-06 06:04 67.41407 14.16528 9754 ft 269 kts 44°
2026-05-06 06:04 67.42567 14.20340 10679 ft 270 kts 54°
2026-05-06 06:05 67.43605 14.24409 11573 ft 271 kts 56°
2026-05-06 06:05 67.44649 14.28618 12252 ft 282 kts 56°
2026-05-06 06:05 67.45727 14.32968 12971 ft 290 kts 56°
2026-05-06 06:05 67.46851 14.37480 13596 ft 302 kts 56°
2026-05-06 06:06 67.48021 14.42151 14150 ft 314 kts 56°
2026-05-06 06:06 67.49246 14.47027 14685 ft 326 kts 56°
2026-05-06 06:06 67.50515 14.52075 15237 ft 338 kts 56°
2026-05-06 06:06 67.51825 14.57289 15791 ft 349 kts 56°
2026-05-06 06:07 67.53174 14.62661 16356 ft 359 kts 56°
2026-05-06 06:07 67.54560 14.68191 16926 ft 368 kts 56°
2026-05-06 06:07 67.55977 14.73859 17509 ft 376 kts 56°
2026-05-06 06:07 67.57421 14.79651 18103 ft 384 kts 56°
2026-05-06 06:08 67.58877 14.85423 18797 ft 385 kts 54°
2026-05-06 06:08 67.60464 14.91189 19572 ft 385 kts 53°
2026-05-06 06:08 67.62062 14.96752 20244 ft 388 kts 52°
2026-05-06 06:08 67.63704 15.02414 20897 ft 392 kts 52°
2026-05-06 06:09 67.65352 15.08126 21543 ft 395 kts 52°
2026-05-06 06:09 67.67012 15.13923 22198 ft 398 kts 52°
2026-05-06 06:09 67.68676 15.19782 22831 ft 401 kts 53°
2026-05-06 06:09 67.70341 15.25685 23428 ft 404 kts 53°
2026-05-06 06:10 67.72020 15.31663 23915 ft 407 kts 53°
2026-05-06 06:10 67.73706 15.37693 24365 ft 411 kts 53°
2026-05-06 06:10 67.75412 15.43812 24805 ft 415 kts 53°
2026-05-06 06:10 67.77126 15.49975 25249 ft 419 kts 53°
2026-05-06 06:11 67.78856 15.56217 25682 ft 422 kts 53°
2026-05-06 06:11 67.80593 15.62499 26099 ft 426 kts 53°
2026-05-06 06:11 67.82349 15.68872 26515 ft 429 kts 53°
2026-05-06 06:11 67.84112 15.75284 26978 ft 431 kts 53°
2026-05-06 06:12 67.85869 15.81698 27548 ft 430 kts 53°
2026-05-06 06:12 67.87622 15.88113 28146 ft 429 kts 53°
2026-05-06 06:12 67.89372 15.94527 28689 ft 429 kts 53°
2026-05-06 06:12 67.91129 16.00991 28777 ft 436 kts 53°
2026-05-06 06:13 67.95159 16.12772 28795 ft 427 kts 31°
2026-05-06 06:13 68.00333 16.20448 28798 ft 427 kts 27°
2026-05-06 06:14 68.05595 16.27876 28791 ft 429 kts 27°
2026-05-06 06:14 68.10823 16.35410 28768 ft 419 kts 27°
2026-05-06 06:15 68.15851 16.42799 28788 ft 413 kts 28°
2026-05-06 06:15 68.20897 16.50284 28407 ft 415 kts 28°
2026-05-06 06:16 68.23397 16.54012 27982 ft 408 kts 28°
2026-05-06 06:16 68.25865 16.57699 27561 ft 402 kts 28°
2026-05-06 06:16 68.28298 16.61344 27100 ft 398 kts 28°
2026-05-06 06:16 68.30736 16.65005 26627 ft 394 kts 28°
2026-05-06 06:17 68.33112 16.68580 26178 ft 390 kts 28°
2026-05-06 06:17 68.35473 16.72141 25722 ft 386 kts 28°
2026-05-06 06:17 68.37782 16.75631 25280 ft 383 kts 28°
2026-05-06 06:17 68.40099 16.79142 24845 ft 380 kts 28°
2026-05-06 06:18 68.42396 16.82631 24411 ft 377 kts 28°
2026-05-06 06:18 68.44676 16.86102 23986 ft 374 kts 28°
2026-05-06 06:18 68.46939 16.89555 23551 ft 371 kts 28°
2026-05-06 06:18 68.49181 16.92985 23086 ft 369 kts 28°
2026-05-06 06:19 68.51411 16.96403 22599 ft 366 kts 28°
2026-05-06 06:19 68.53617 16.99794 22176 ft 361 kts 28°
2026-05-06 06:19 68.55793 17.03144 21763 ft 357 kts 28°
2026-05-06 06:19 68.57948 17.06471 21342 ft 354 kts 28°
2026-05-06 06:20 68.60083 17.09775 20921 ft 352 kts 28°
2026-05-06 06:20 68.62208 17.13069 20526 ft 349 kts 28°
2026-05-06 06:20 68.64314 17.16341 20092 ft 347 kts 28°
2026-05-06 06:20 68.66404 17.19595 19691 ft 344 kts 28°
2026-05-06 06:21 68.68481 17.22836 19295 ft 343 kts 28°
2026-05-06 06:21 68.70550 17.26070 18890 ft 341 kts 27°
2026-05-06 06:21 68.72609 17.29297 18499 ft 339 kts 27°
2026-05-06 06:21 68.74654 17.32508 18111 ft 338 kts 27°
2026-05-06 06:22 68.76692 17.35716 17666 ft 337 kts 27°
2026-05-06 06:22 68.78723 17.38919 17267 ft 335 kts 27°
2026-05-06 06:22 68.80744 17.42113 16871 ft 333 kts 27°
2026-05-06 06:22 68.82778 17.45335 16469 ft 331 kts 27°
2026-05-06 06:23 68.84770 17.48496 16090 ft 329 kts 27°
2026-05-06 06:23 68.86722 17.51601 15714 ft 327 kts 27°
2026-05-06 06:23 68.88707 17.54765 15326 ft 325 kts 27°
2026-05-06 06:23 68.90662 17.57888 14945 ft 323 kts 27°
2026-05-06 06:24 68.91947 17.59943 14698 ft 322 kts 27°
2026-05-06 06:24 68.94510 17.64053 14198 ft 320 kts 27°
2026-05-06 06:24 68.96440 17.67153 13834 ft 319 kts 27°
2026-05-06 06:24 68.97736 17.69240 13576 ft 318 kts 27°
2026-05-06 06:25 68.99619 17.72275 13166 ft 317 kts 27°
2026-05-06 06:25 69.01527 17.75353 12768 ft 316 kts 28°
2026-05-06 06:25 69.01784 17.75768 12723 ft 316 kts 28°
2026-05-06 06:33 69.03200 17.78060 12443 ft 314 kts 28°
2026-05-06 06:33 69.05085 17.81119 12049 ft 313 kts 28°
2026-05-06 06:33 69.06919 17.84350 11659 ft 312 kts 36°
2026-05-06 06:33 69.08548 17.88406 11214 ft 314 kts 43°
2026-05-06 06:34 69.10081 17.92747 10830 ft 313 kts 44°
2026-05-06 06:34 69.11593 17.97130 10441 ft 312 kts 44°
2026-05-06 06:34 69.13096 18.01464 10170 ft 305 kts 44°
2026-05-06 06:34 69.14558 18.05637 10048 ft 295 kts 43°
2026-05-06 06:35 69.15981 18.09664 9930 ft 286 kts 43°
2026-05-06 06:35 69.17366 18.13566 9810 ft 278 kts 43°
2026-05-06 06:35 69.18718 18.17365 9592 ft 274 kts 43°
2026-05-06 06:35 69.20064 18.21143 9304 ft 272 kts 43°
2026-05-06 06:36 69.21399 18.24892 9069 ft 268 kts 43°
2026-05-06 06:36 69.22695 18.28540 8943 ft 260 kts 43°
2026-05-06 06:36 69.23966 18.32121 8701 ft 257 kts 43°
2026-05-06 06:36 69.25222 18.35665 8453 ft 254 kts 43°
2026-05-06 06:37 69.26472 18.39193 8176 ft 254 kts 43°
2026-05-06 06:37 69.27717 18.42710 7908 ft 253 kts 44°
2026-05-06 06:37 69.28957 18.46228 7632 ft 252 kts 44°
2026-05-06 06:37 69.30187 18.49720 7361 ft 249 kts 44°
2026-05-06 06:38 69.31394 18.53157 7229 ft 243 kts 44°
2026-05-06 06:38 69.32620 18.56324 7108 ft 236 kts 35°
2026-05-06 06:38 69.33964 18.58944 7023 ft 235 kts 32°
2026-05-06 06:38 69.35335 18.61499 6932 ft 236 kts 32°
2026-05-06 06:39 69.36690 18.64060 6821 ft 230 kts 33°
2026-05-06 06:39 69.37995 18.66568 6711 ft 224 kts 33°
2026-05-06 06:39 69.39279 18.69061 6476 ft 222 kts 33°
2026-05-06 06:39 69.40546 18.71530 6263 ft 221 kts 33°
2026-05-06 06:40 69.41808 18.73983 6028 ft 219 kts 31°
2026-05-06 06:40 69.43213 18.75507 5785 ft 216 kts 11°
2026-05-06 06:40 69.44675 18.76387 5558 ft 214 kts 11°
2026-05-06 06:40 69.46132 18.77293 5320 ft 213 kts 12°
2026-05-06 06:41 69.47577 18.78218 5115 ft 212 kts 12°
2026-05-06 06:41 69.48999 18.79136 5024 ft 209 kts 12°
2026-05-06 06:41 69.50385 18.80034 4999 ft 194 kts 12°
2026-05-06 06:41 69.51745 18.80855 4447 ft 205 kts 12°
2026-05-06 06:42 69.53136 18.81739 4025 ft 205 kts 13°
2026-05-06 06:42 69.54496 18.82642 3627 ft 197 kts 13°
2026-05-06 06:42 69.55791 18.83509 3275 ft 189 kts 13°
2026-05-06 06:42 69.57043 18.84347 2929 ft 181 kts 13°